Regional Weather Roundup
Issued by NWS

Home | Current Version | Previous Version | Graphics & Text | Print | Product List | Glossary On
Versions: 1 2 3 4 5 6 7 8 9 10 11 12 13 14 15 16 17 18 19 20 21 22 23 24 25 26 27 28 29 30 31 32 33 34 35 36 37 38 39 40 41 42 43 44 45 46 47 48 49 50
000
ASUS45 KTFX 300710
RWRMT
MONTANA REGIONAL WEATHER ROUNDUP
NATIONAL WEATHER SERVICE GREAT FALLS MT
100 AM MDT TUE AUG 30 2016

NOTE: "FAIR" INDICATES FEW OR NO CLOUDS BELOW 12000 FEET WITH NO
SIGNIFICANT WEATHER AND/OR OBSTRUCTIONS TO VISIBILITY.

MTZ001>007-043-300800-
WEST OF THE DIVIDE

CITY           SKY/WX    TMP DP  RH WIND       PRES   REMARKS
KALISPELL      CLEAR     61  45  55 VRB6      30.02R
MISSOULA       PTCLDY    65  39  38 CALM      30.06R
BUTTE          CLOUDY    58  35  42 SE7       30.22R
MULLAN PASS    CLEAR     66  33  29 NW3       30.23R
DEER LODGE       N/A     61  37  41 CALM      30.18R
EUREKA           N/A     59  54  82 CALM      30.03
HAMILTON         N/A     64  39  39 S9        30.08S
LIBBY            N/A     59  46  63 CALM      30.03R
PLAINS           N/A     58  45  62 CALM      30.03R
RONAN            N/A     54  45  71 CALM      30.08R
$$

MTZ008-052>055-300800-
SOUTHWEST MONTANA

CITY           SKY/WX    TMP DP  RH WIND       PRES   REMARKS
BOZEMAN        PTCLDY    61  43  51 S5        30.15S
DILLON         CLOUDY    67  30  25 SW12      30.17S
W YELLOWSTONE  CLOUDY    46  23  39 CALM      30.36R
ENNIS          CLEAR     64  23  20 SE5       30.25S
THREE FORKS      N/A     72 -11   3 CALM      30.12S
TWIN BRIDGES     N/A     62  31  31 NE5       30.14R
$$

MTZ009-010-012-014-046-048-049-054-300800-
EAST SLOPES AND CENTRAL MONTANA

CITY           SKY/WX    TMP DP  RH WIND       PRES   REMARKS
CUT BANK       MOCLDY    64  48  56 NE13      30.14F
GREAT FALLS    CLOUDY    68  43  40 NE7       30.10S
HELENA         PTCLDY    68  39  34 CALM      30.11R
CHOTEAU          N/A     66  46  48 CALM      30.15R
CONRAD           N/A     71  50  47 NE9       30.12F
$$

MTZ011-013-016-021-045-047-050-051-300800-
NORTH CENTRAL MONTANA

CITY           SKY/WX    TMP DP  RH WIND       PRES   REMARKS
HAVRE          CLOUDY    64  48  56 NE7       30.07S
LEWISTOWN      CLOUDY    68  47  46 E9        30.16F
N BAR RANCH      N/A     59  45  58 CALM      30.22F
CHINOOK          N/A     61  52  72 E7        30.09F
$$

MTZ017>020-022>027-061-062-300800-
NORTHEAST MONTANA

CITY           SKY/WX    TMP DP  RH WIND       PRES   REMARKS
GLASGOW        PTCLDY    65  43  44 E13       30.14S
JORDAN           N/A     66  48  52 E6        30.14F
SIDNEY         CLEAR     64  45  49 S5        30.21S
WOLF POINT     CLEAR     60  43  53 NE6       30.17F
PLENTYWOOD       N/A     63  43  48 E6        30.22S
POPLAR           N/A     63  45  51 E8        30.18F
SCOBEY           N/A     60  38  44 E2        30.18S
$$

MTZ028>42-056>058-300800-
SOUTHCENTRAL AND SOUTHEAST MONTANA

CITY           SKY/WX    TMP DP  RH WIND       PRES   REMARKS
BAKER          CLEAR     62  48  60 SE12      30.24S
BILLINGS       PTCLDY    70  48  45 N3        30.12F
LIVINGSTON     CLOUDY    59  45  59 CALM      30.19F
MILES CITY     PTCLDY    72  43  35 SE9       30.16F
EKALAKA          N/A     63  47  55 SE15      30.19S
FORSYTH          N/A     66  48  52 E8        30.12F
LAUREL           N/A     65  47  52 CALM      30.11F
ROUNDUP          N/A     67  45  45 NW3       30.04F
$$

REGIONAL REPORTS...DAKOTAS

CITY           SKY/WX    TMP DP  RH WIND       PRES   REMARKS
WILLISTON      CLEAR     57  42  57 N3        30.22S
MINOT          CLEAR     53  46  77 CALM      30.23F
DICKINSON      CLEAR     54  45  71 SE10      30.24F
CROSBY           N/A     50  43  76 SE5       30.25F
WATFORD CITY     N/A     57  43  58 CALM      30.23S
BISMARCK       CLEAR     55  49  80 NE9       30.25S
GRAND FORKS    CLEAR     53  49  86 W5        30.21S
FARGO          CLEAR     56  51  84 N7        30.21R
BUFFALO SD       N/A     62  51  67 E6        30.19S
RAPID CITY     CLEAR     62  59  90 CALM      30.26S
$$

REGIONAL REPORTS...WYOMING/IDAHO/WASHINGTON

CITY           SKY/WX    TMP DP  RH WIND       PRES   REMARKS
GILLETTE       CLEAR     67  55  65 S16       30.25S
SHERIDAN       CLEAR     62  45  53 VRB5      30.18F
BUFFALO WY     CLEAR     65  44  46 S9        30.29S
CODY           CLEAR     68  39  34 S3        30.24S
YELLOWSTONE LA   N/A     45  31  58 NW3       30.46F
IDAHO FALLS    CLOUDY    54  42  64 CALM      30.18S
SALMON         CLOUDY   N/A N/A N/A MISG        N/A
BOISE          MOCLDY    73  33  23 SE5       29.99F
SPOKANE        PTCLDY    68  40  35 S8        29.98R
$$

REGIONAL REPORTS...ALBERTA

CITY           SKY/WX    TMP DP  RH WIND       PRES   REMARKS
EDMONTON       PTCLDY    48  43  81 E7        30.17S
CALGARY        PTCLDY    57  50  77 S7        30.15R
LETHBRIDGE     CLOUDY    61  54  77 E12G24    30.10R
MEDICINE HAT   LGT RAIN  63  57  82 N15G25    30.13F
$$

REGIONAL REPORTS...SASKATCHEWAN

CITY           SKY/WX    TMP DP  RH WIND       PRES   REMARKS
SWIFT CURRENT  CLEAR     55  46  71 E13       30.17F
REGINA         PTCLDY    55  45  67 E8        30.23S
SASKATOON      CLEAR     48  45  87 E6        30.26R
$$



USA.gov is the U.S. government's official web portal to all federal, state and local government web resources and services.